Погода в Керках

Россия / Республика Коми     63°43′50″N   54°12′14″E
темп.,
°C
ветер,
м/с
пор.,
м/с
влажн.,
%
обл.,
%
осадки,
мм/ч
давл.,
гПа
погр.,
м
8 мая, сб
сб800:00+6юв3795100 0.1 1009126
03:00+6ююв3996100 0.3 1008171
06:00+9ююз51190100 0.2 1008827
09:00+7зюз51081100 1.0 10131046
12:00+10зюз596670 0.0 10151270
15:00+11з355392 0.1 10171495
18:00+11юз23585 0.0 1018170
21:00+7вюв12700 0.0 101910
9 мая, вс
вс900:00+5вюв267839 0.0 1019102
03:00+4вюв298643 0.0 1020174
06:00+9юв4106699 0.0 1019344
09:00+14юв5944100 0.0 10171161
12:00+16ююв6936100 0.0 10161409
15:00+19ю51143100 0.0 10152234
18:00+17ююв51249100 0.0 10141094
21:00+16ююв61450100 0.0 1014748
10 мая, пн
пн1000:00+15ююв61659100 0.0 1013718
03:00+14ююв61561100 0.0 1013775
06:00+15ю61558100 0.0 10131236
09:00+14ююз51068100 0.3 10141288
12:00+6сз5889100 5.7 1018509
15:00+6сз3783100 9.2 1022749
18:00+7сз2568100 0.1 1024624
21:00+4ююв11790 0.1 102510
11 мая, вт
вт1100:00+3ююз23851 0.0 102644
03:00+3юз24835 0.0 102779
06:00+7зюз25655 0.0 1027227
09:00+12юз354929 0.0 1026967
12:00+13юз4739100 0.0 10252148
15:00+11юз5761100 0.0 10251368
18:00+8ююз3785100 0.7 1025599
21:00+8ююз2692100 0.9 1024339
12 мая, ср
ср1200:00+8ююз1396100 0.0 1024157
03:00+8зюз2498100 0.0 1025158
06:00+8зюз259899 0.0 1026185
09:00+13з3475100 0.0 1026599
12:00+17зюз246246 0.0 1025923
15:00+18юз255898 0.1 1024564
18:00+19зюз2656100 0.0 1024194
21:00+16зюз2868100 0.0 1023176